[[{"header":{"parameterUnit":"m.s-1","parameterCategory":1,"la1":30.2991,"la2":30.254,"lo1":-89.0895,"lo2":-89.0444,"dy":0.0017,"dx":0.0017,"nx":28,"ny":28,"refTime":"2025-01-15T09:00:00:Z","depth":0,"parameterNumber":2,"parameterNumberName":"U-component_of_WINDS"},"data":[0,0,0,0,0,0,0,0,0,0,0,0,0,0,0,0,0,0,0,0,0,0,0,0,0,0,0,0,0,0,0,0,0,0,0,0,0,0,0,0,0,0,0,0,0,0,0,0,0,0,0,0,0,0,0,0,0,0,-1.1726,-1.1726,0,-1.1654,-1.1653,-1.1652,-1.1548,-1.1546,-1.1544,-1.1543,-1.147,-1.1469,-1.1469,0,0,0,0,0,0,0,0,0,0,0,0,0,-1.1777,-1.1777,-1.1727,-1.1726,-1.1725,-1.1654,-1.1653,-1.1652,-1.1548,-1.1546,-1.1544,-1.1542,-1.147,-1.1469,-1.1469,0,0,0,0,0,0,0,0,0,0,0,0,0,-1.1735,-1.1777,-1.1727,-1.1664,-1.1658,-1.1654,-1.1653,-1.1652,-1.1549,-1.1546,-1.1543,-1.1541,-1.147,-1.1469,-1.1469,-1.152,0,0,-1.1468,-1.1468,0,0,0,0,0,0,0,0,-1.1738,-1.1733,-1.1674,-1.1669,-1.1662,-1.1607,-1.1644,-1.1608,-1.1549,-1.159,-1.1543,-1.1539,-1.1518,-1.1513,-1.1505,-1.1517,-1.1514,-1.1468,-1.1467,-1.1467,-1.1467,0,0,0,0,0,0,0,-1.1741,-1.1736,-1.1698,-1.1674,-1.1666,-1.1641,-1.1632,-1.1637,-1.157,-1.1587,-1.1579,-1.1572,-1.1514,-1.1506,-1.1503,-1.1513,-1.1468,-1.1467,-1.1467,-1.1467,-1.1565,-1.1568,0,0,0,0,0,0,-1.1753,-1.1739,-1.17,-1.1695,-1.1694,-1.1642,-1.1632,-1.1627,-1.157,-1.1558,-1.1574,-1.1567,-1.1508,-1.1503,-1.15,-1.1558,-1.1467,-1.1467,-1.1467,-1.1562,-1.1566,-1.1569,0,0,0,0,0,0,-1.1754,-1.175,-1.1703,-1.1715,-1.1707,-1.1644,-1.164,-1.1627,-1.162,-1.156,-1.1548,-1.1578,-1.1506,-1.1501,-1.1516,-1.1554,-1.1467,-1.1466,-1.1559,-1.1563,-1.1567,-1.1674,0,0,0,0,0,0,-1.1756,-1.1751,-1.177,-1.1716,-1.1707,-1.1721,-1.1642,-1.1628,-1.1619,-1.1609,-1.1561,-1.155,-1.1503,-1.1518,-1.1516,-1.1552,-1.1466,-1.1555,-1.1561,-1.1566,-1.1667,-1.1682,-1.1694,0,0,0,0,0,-1.1758,-1.1803,-1.1771,-1.1767,-1.1729,-1.1723,-1.1717,-1.1662,-1.1623,-1.1641,-1.1603,-1.1552,-1.155,-1.152,-1.1517,-1.1554,-1.1553,-1.1559,-1.1565,-1.1661,-1.1679,-1.1694,0,0,0,0,0,0,-1.1862,-1.1795,-1.1759,-1.1787,-1.1762,-1.1705,-1.1727,-1.1682,-1.1667,-1.1659,-1.1591,-1.1581,-1.1606,-1.1581,-1.1549,-1.1602,-1.1544,-1.155,-1.1617,-1.1634,-1.1647,-1.1653,-1.1466,0,0,0,0,0,-1.1889,-1.1889,-1.183,-1.1861,-1.1849,-1.1791,-1.1786,-1.1745,-1.1716,-1.1705,-1.1668,-1.1642,-1.1636,-1.1633,-1.1623,-1.1662,-1.1652,-1.1686,-1.17,-1.1711,-1.1718,-1.1739,-1.1755,-1.159,-1.159,-1.159,0,0,-1.1943,-1.1906,-1.191,-1.1881,-1.1856,-1.1859,-1.1782,-1.1788,-1.179,-1.1706,-1.1719,-1.1691,-1.1658,-1.1687,-1.1697,-1.1667,-1.1761,-1.1719,-1.1729,-1.1729,-1.1747,-1.1763,-1.1777,-1.1594,-1.1593,-1.1593,0,0,-1.2044,-1.2015,-1.2038,-1.2015,-1.1979,-1.194,-1.1946,-1.1896,-1.1875,-1.1886,-1.1824,-1.1825,-1.1815,-1.1795,-1.1783,-1.1878,-1.1831,-1.1876,-1.1948,-1.1969,-1.1982,-1.1993,-1.2029,-1.2043,-1.1883,-1.1883,-1.1883,0,-1.2116,-1.2118,-1.2056,-1.2067,-1.2056,-1.198,-1.2004,-1.1984,-1.1947,-1.1942,-1.1908,-1.1895,-1.1867,-1.1891,-1.1914,-1.1906,-1.1912,-1.1882,-1.1985,-1.1996,-1.2005,-1.2039,-1.2052,-1.1889,-1.1888,-1.1888,-1.1887,0,-1.221,-1.2212,-1.2235,-1.2201,-1.2193,-1.221,-1.2153,-1.2152,-1.2112,-1.2077,-1.2091,-1.2055,-1.2038,-1.204,-1.2001,-1.2059,-1.2042,-1.1997,-1.1938,-1.2028,-1.2059,-1.2071,-1.1898,-1.1895,-1.1894,-1.1892,0,0,-1.2375,-1.2307,-1.2317,-1.2302,-1.2256,-1.2257,-1.2271,-1.2254,-1.2256,-1.2233,-1.2245,-1.2238,-1.2198,-1.2185,-1.2142,-1.2161,-1.2241,-1.2114,-1.2113,-1.2141,-1.2306,-1.2341,-1.2357,-1.2209,-1.2211,-1.2213,-1.2309,0,-1.2469,-1.2489,-1.2435,-1.2469,-1.2472,-1.2399,-1.2412,-1.2386,-1.2354,-1.2352,-1.2315,-1.2313,-1.2258,-1.225,-1.2265,-1.2229,-1.2274,-1.222,-1.2221,-1.2222,-1.2234,-1.2372,-1.2409,-1.2502,-1.2321,-1.2322,-1.2324,0,-1.2581,-1.2564,-1.2599,-1.2553,-1.2552,-1.2565,-1.2546,-1.2544,-1.2514,-1.2489,-1.2475,-1.2426,-1.2438,-1.238,-1.2397,-1.2362,-1.2359,-1.2341,-1.2344,-1.2343,-1.228,-1.2378,-1.2529,-1.2545,-1.2342,-1.234,-1.2339,0,-1.2701,-1.2687,-1.2707,-1.2695,-1.2642,-1.2652,-1.2631,-1.2597,-1.2591,-1.2575,-1.2571,-1.2556,-1.2549,-1.2539,-1.2488,-1.245,-1.2512,-1.2449,-1.2494,-1.2495,-1.2511,-1.2512,-1.2667,-1.2506,-1.2506,-1.2506,-1.2505,0,-1.2813,-1.2838,-1.276,-1.2773,-1.2799,-1.2736,-1.2764,-1.2735,-1.2706,-1.2713,-1.2649,-1.2656,-1.2587,-1.2588,-1.2548,-1.257,-1.2566,-1.2548,-1.2537,-1.2555,-1.2558,-1.2554,-1.2547,-1.2509,-1.2508,-1.2508,-1.2507,0,-1.2953,-1.2901,-1.2918,-1.2866,-1.2854,-1.2876,-1.2831,-1.2841,-1.2804,-1.2814,-1.2812,-1.2755,-1.2753,-1.27,-1.2686,-1.266,-1.2698,-1.2674,-1.2709,-1.2702,-1.2751,-1.2748,-1.2911,-1.293,-1.2755,-1.2757,-1.2758,0,-1.3029,-1.3046,-1.2996,-1.2996,-1.2977,-1.2977,-1.297,-1.2909,-1.2905,-1.2873,-1.2888,-1.288,-1.287,-1.2869,-1.2828,-1.2817,-1.2794,-1.2852,-1.2792,-1.281,-1.2798,-1.2799,-1.2802,-1.2866,-1.2868,-1.287,-1.2871,0,-1.317,-1.3144,-1.3136,-1.3121,-1.3116,-1.3101,-1.3082,-1.3085,-1.3018,-1.3017,-1.3014,-1.3007,-1.2993,-1.2986,-1.2969,-1.2947,-1.29,-1.289,-1.29,-1.292,-1.294,-1.2932,-1.2746,-1.2887,-1.2885,-1.2884,-1.2883,-1.2883,-1.3281,-1.3294,-1.3261,-1.3256,-1.3235,-1.322,-1.3227,-1.3191,-1.3187,-1.3171,-1.3135,-1.3138,-1.3109,-1.308,-1.3062,-1.3064,-1.3035,-1.3049,-1.3053,-1.3059,-1.3069,-1.2938,-1.3061,-1.306,-1.306,-1.3059,-1.3059,0,-1.3421,-1.3396,-1.3392,-1.3368,-1.3364,-1.3318,-1.3295,-1.3296,-1.3299,-1.3275,-1.3267,-1.3264,-1.3258,-1.3216,-1.3205,-1.3215,-1.3194,-1.3215,-1.3215,-1.3211,-1.3095,-1.3088,-1.3233,-1.3233,-1.3233,-1.3233,-1.3233,-1.3233,-1.3494,-1.3514,-1.3484,-1.3494,-1.3469,-1.3471,-1.3462,-1.3448,-1.3429,-1.3428,-1.3423,-1.3395,-1.3365,-1.3352,-1.3345,-1.3332,-1.3333,-1.3362,-1.3344,-1.3236,-1.3219,-1.3203,-1.3197,-1.3362,-1.3363,-1.346,-1.3461,-1.3462]},{"header":{"parameterUnit":"m.s-1","parameterCategory":1,"la1":30.2991,"la2":30.254,"lo1":-89.0895,"lo2":-89.0444,"dy":0.0017,"dx":0.0017,"nx":28,"ny":28,"refTime":"2025-01-15T09:00:00:Z","depth":0,"parameterNumber":3,"parameterNumberName":"V-component_of_WINDS"},"data":[0,0,0,0,0,0,0,0,0,0,0,0,0,0,0,0,0,0,0,0,0,0,0,0,0,0,0,0,0,0,0,0,0,0,0,0,0,0,0,0,0,0,0,0,0,0,0,0,0,0,0,0,0,0,0,0,0,0,-4.6362,-4.6361,0,-4.6294,-4.6293,-4.6292,-4.619,-4.6188,-4.6187,-4.6185,-4.6114,-4.6114,-4.6114,0,0,0,0,0,0,0,0,0,0,0,0,0,-4.6402,-4.6402,-4.6362,-4.6361,-4.636,-4.6294,-4.6293,-4.6292,-4.6191,-4.6188,-4.6186,-4.6184,-4.6114,-4.6114,-4.6114,0,0,0,0,0,0,0,0,0,0,0,0,0,-4.6364,-4.6402,-4.6362,-4.6302,-4.6295,-4.6294,-4.6293,-4.6292,-4.6191,-4.6188,-4.6186,-4.6183,-4.6114,-4.6114,-4.6114,-4.6165,0,0,-4.6113,-4.6112,0,0,0,0,0,0,0,0,-4.6366,-4.6363,-4.6311,-4.6306,-4.6299,-4.6248,-4.6281,-4.6249,-4.6192,-4.6231,-4.6185,-4.6182,-4.6161,-4.6156,-4.6149,-4.6162,-4.6159,-4.6113,-4.6112,-4.6112,-4.6112,0,0,0,0,0,0,0,-4.6369,-4.6365,-4.6335,-4.6311,-4.6303,-4.6277,-4.6269,-4.6274,-4.6212,-4.6227,-4.622,-4.6213,-4.6157,-4.615,-4.6147,-4.6158,-4.6113,-4.6112,-4.6112,-4.6112,-4.6205,-4.6208,0,0,0,0,0,0,-4.6381,-4.6368,-4.6337,-4.6333,-4.6327,-4.6279,-4.6269,-4.6267,-4.6211,-4.62,-4.6215,-4.6208,-4.6152,-4.6147,-4.6144,-4.6198,-4.6112,-4.6112,-4.6112,-4.6202,-4.6206,-4.6209,0,0,0,0,0,0,-4.6382,-4.6379,-4.634,-4.6348,-4.6341,-4.6281,-4.6279,-4.6267,-4.626,-4.6202,-4.619,-4.622,-4.615,-4.6145,-4.616,-4.6194,-4.6112,-4.6111,-4.6199,-4.6203,-4.6207,-4.6308,0,0,0,0,0,0,-4.6384,-4.638,-4.64,-4.6349,-4.6341,-4.6358,-4.6281,-4.6267,-4.626,-4.625,-4.6204,-4.6193,-4.6147,-4.6161,-4.616,-4.6192,-4.6111,-4.6196,-4.6201,-4.6206,-4.6302,-4.6315,-4.6327,0,0,0,0,0,-4.6386,-4.6432,-4.6402,-4.6398,-4.6365,-4.636,-4.6355,-4.6302,-4.6263,-4.6282,-4.6244,-4.6195,-4.6191,-4.6163,-4.6161,-4.6194,-4.6193,-4.62,-4.6205,-4.6296,-4.6313,-4.6327,0,0,0,0,0,0,-4.6488,-4.6424,-4.639,-4.6421,-4.6397,-4.6343,-4.6365,-4.6321,-4.6307,-4.6299,-4.6232,-4.6223,-4.6246,-4.6221,-4.6192,-4.6239,-4.6184,-4.619,-4.6254,-4.6269,-4.6282,-4.6287,-4.6111,0,0,0,0,0,-4.6515,-4.6517,-4.6461,-4.6494,-4.6483,-4.6427,-4.6423,-4.6383,-4.6355,-4.6344,-4.6308,-4.6282,-4.6274,-4.6271,-4.6261,-4.6298,-4.6284,-4.6319,-4.6332,-4.6343,-4.6348,-4.6362,-4.6376,-4.6228,-4.6228,-4.6228,0,0,-4.6569,-4.6534,-4.654,-4.6513,-4.649,-4.6492,-4.6418,-4.6425,-4.6426,-4.6345,-4.6356,-4.6329,-4.6295,-4.6321,-4.633,-4.6301,-4.6386,-4.635,-4.6359,-4.6359,-4.637,-4.6384,-4.6396,-4.6232,-4.6232,-4.6231,0,0,-4.6669,-4.6644,-4.6667,-4.6645,-4.661,-4.6571,-4.6577,-4.6529,-4.6508,-4.6519,-4.6457,-4.6456,-4.6446,-4.6423,-4.6411,-4.65,-4.6452,-4.6498,-4.6564,-4.6579,-4.659,-4.66,-4.6629,-4.6641,-4.6504,-4.6504,-4.6504,0,-4.6741,-4.6743,-4.6685,-4.6694,-4.6683,-4.661,-4.6632,-4.6613,-4.6577,-4.657,-4.6539,-4.6521,-4.6494,-4.6512,-4.6533,-4.6526,-4.6529,-4.6503,-4.6594,-4.6603,-4.6611,-4.6638,-4.665,-4.651,-4.6509,-4.6509,-4.6508,0,-4.6831,-4.6834,-4.6857,-4.6823,-4.6814,-4.6831,-4.6774,-4.6772,-4.6733,-4.6698,-4.6708,-4.6672,-4.6652,-4.6653,-4.6616,-4.6665,-4.6647,-4.6606,-4.6549,-4.6632,-4.6656,-4.6666,-4.6518,-4.6516,-4.6514,-4.6513,0,0,-4.6994,-4.6927,-4.6936,-4.6919,-4.6874,-4.6874,-4.6886,-4.6866,-4.6865,-4.6842,-4.6848,-4.684,-4.68,-4.6785,-4.6744,-4.6758,-4.6826,-4.6713,-4.6711,-4.6733,-4.6875,-4.6905,-4.6918,-4.6795,-4.6797,-4.6799,-4.6876,0,-4.7083,-4.71,-4.7047,-4.7077,-4.7077,-4.7006,-4.7016,-4.6988,-4.6955,-4.6949,-4.6912,-4.6906,-4.6855,-4.6845,-4.6856,-4.6816,-4.6853,-4.681,-4.6798,-4.6799,-4.6807,-4.6931,-4.6964,-4.7039,-4.6886,-4.6887,-4.6889,0,-4.719,-4.7172,-4.7202,-4.7153,-4.715,-4.716,-4.7137,-4.7133,-4.7099,-4.7074,-4.7057,-4.7008,-4.7014,-4.6961,-4.6966,-4.6937,-4.6929,-4.6909,-4.691,-4.6906,-4.6848,-4.6928,-4.7062,-4.7073,-4.6903,-4.6902,-4.6901,0,-4.7303,-4.7286,-4.7301,-4.7288,-4.7233,-4.724,-4.7217,-4.7181,-4.7172,-4.7151,-4.7144,-4.7124,-4.7113,-4.7097,-4.7044,-4.7011,-4.7054,-4.6997,-4.7031,-4.7033,-4.7043,-4.7043,-4.7176,-4.7041,-4.7041,-4.7041,-4.7041,0,-4.7407,-4.7428,-4.735,-4.7359,-4.7379,-4.7318,-4.7338,-4.7308,-4.7276,-4.7276,-4.7214,-4.7215,-4.7146,-4.7138,-4.7097,-4.7105,-4.7101,-4.7079,-4.7067,-4.7084,-4.7086,-4.7076,-4.7069,-4.7044,-4.7043,-4.7043,-4.7042,0,-4.7537,-4.7486,-4.7497,-4.7443,-4.7429,-4.7446,-4.7398,-4.7403,-4.7366,-4.7366,-4.7363,-4.7303,-4.7291,-4.7237,-4.7212,-4.7183,-4.7206,-4.7184,-4.7217,-4.7209,-4.7245,-4.7242,-4.7375,-4.7388,-4.7248,-4.7249,-4.7251,0,-4.7606,-4.7619,-4.7566,-4.7562,-4.7542,-4.7536,-4.7526,-4.7465,-4.7457,-4.7418,-4.7427,-4.741,-4.7393,-4.7377,-4.733,-4.731,-4.7286,-4.7334,-4.7282,-4.7297,-4.7283,-4.7283,-4.7282,-4.7345,-4.7347,-4.7348,-4.735,0,-4.7733,-4.7706,-4.7695,-4.7674,-4.7664,-4.7644,-4.7621,-4.7621,-4.7553,-4.7546,-4.7533,-4.752,-4.7494,-4.7477,-4.7448,-4.7422,-4.7374,-4.7366,-4.7372,-4.7388,-4.7406,-4.7394,-4.7245,-4.7363,-4.7362,-4.7361,-4.736,-4.736,-4.7832,-4.784,-4.7803,-4.7791,-4.7767,-4.7747,-4.7748,-4.771,-4.7698,-4.7672,-4.7637,-4.7628,-4.759,-4.7547,-4.7524,-4.7515,-4.7488,-4.7498,-4.75,-4.7503,-4.751,-4.7409,-4.751,-4.7509,-4.7509,-4.7508,-4.7508,0,-4.7954,-4.7926,-4.7916,-4.7885,-4.7876,-4.7832,-4.7803,-4.7797,-4.779,-4.776,-4.7744,-4.7728,-4.771,-4.7661,-4.7638,-4.7639,-4.7616,-4.7635,-4.7633,-4.7627,-4.7537,-4.7532,-4.7654,-4.7654,-4.7654,-4.7654,-4.7654,-4.7654,-4.8016,-4.8026,-4.7996,-4.7992,-4.7964,-4.7955,-4.7942,-4.7921,-4.7896,-4.7881,-4.7866,-4.7835,-4.7796,-4.7769,-4.775,-4.7735,-4.7729,-4.7754,-4.7733,-4.7648,-4.7634,-4.7621,-4.7617,-4.7754,-4.7754,-4.7824,-4.7825,-4.7825]}]]